(353607) = 2011 UA11

Discovered at Kitt Peak on 2003-03-27 by Spacewatch.

Orbit

Orbit type: Main Belt

Note: WebGL enabled browser required.

epoch2023-09-13.0
epoch JD2460200.5
perihelion date2018-07-01.45297
perihelion JD2458300.95297
argument of perihelion (°)250.72929
ascending node (°)193.31849
inclination (°)13.67959
eccentricity0.0859842
perihelion distance (AU)2.8880484
Tisserand w.r.t. Jupiter3.2
ΔV w.r.t. Earth (km/sec)11.4
semimajor axis (AU)3.1597359
mean anomaly (°)333.33255
mean daily motion (°/day)0.17548000
aphelion distance (AU)3.431
period (years)5.62
P-vector [x]0.10986744
P-vector [y]0.97742915
P-vector [z]0.18044778
Q-vector [x]-0.99245209
Q-vector [y]0.11783005
Q-vector [z]-0.03398411
absolute magnitude16.13
phase slope0.15
uncertainty0
referenceMPEC 2023-X152
observations used283
oppositions12
arc length (days)7559
first opposition used2003
last opposition used2023
residual rms (arc-secs)0.56
perturbers coarse indicatorM-v
perturbers precise indicator003Ek
first observation date used2003-03-27.0
last observation date used2023-12-06.0
computer nameMPCLINUX
JD of orbit computation2456819.489831
perihelion JD uncertainty (days)3.1148E-04
argument of perihelion uncertainty (°)5.9395E-05
ascending node uncertainty (°)1.4670E-05
inclination uncertainty (°)9.5432E-06
eccentricity uncertainty 3.4099E-08
perihelion distance uncertainty (AU)1.2397E-07
Minimum Orbit Intersection Distances (in AU)
for orbit epoch: 2460200.5, reference: E2023-XF2
Mercury2.59453
Venus2.19054
Earth1.93715
Mars1.41496
Jupiter1.86941
Saturn6.24154
Uranus15.2955
Neptune26.7855

Observations

287 total observations over interval: 2003 03 27.30500 – 2023 12 06.359122
These data are available for download (format description).

Date (UT) J2000 RA J2000 Dec Magn Location Ref
2003 03 27.30500 12 53 59.91 -06 19 33.3 20.4 V 691 – Steward Observatory, Kitt Peak-Spacewatch MPS 398409
2003 03 27.33119 12 53 58.83 -06 19 20.1 20.5 V 691 – Steward Observatory, Kitt Peak-Spacewatch MPS 398409
2003 03 27.35767 12 53 57.77 -06 19 08.7 21.1 V 691 – Steward Observatory, Kitt Peak-Spacewatch MPS 398409
2003 04 30.15673 12 33 28.23 -02 04 14.9 21.7 V 691 – Steward Observatory, Kitt Peak-Spacewatch MPS 398409
2003 04 30.18691 12 33 27.35 -02 04 04.1 22.0 V 691 – Steward Observatory, Kitt Peak-Spacewatch MPS 398409
2003 04 30.21442 12 33 26.61 -02 03 53.9 21.2 V 691 – Steward Observatory, Kitt Peak-Spacewatch MPS 398409
2009 03 19.41296 15 09 40.24 -10 58 01.0 21.5 V G96 – Mt. Lemmon Survey MPS 398409
2009 03 19.41978 15 09 40.14 -10 57 58.6 21.1 V G96 – Mt. Lemmon Survey MPS 398409
2009 03 19.42667 15 09 40.10 -10 57 56.5 21.1 V G96 – Mt. Lemmon Survey MPS 398409
2009 03 19.43355 15 09 40.03 -10 57 54.6 21.0 V G96 – Mt. Lemmon Survey MPS 398409
2011 09 02.43511 23 54 47.701 +06 33 20.45 20.9 w F51 – Pan-STARRS 1, Haleakala MPS 398409
2011 09 02.44940 23 54 47.205 +06 33 15.20 20.9 w F51 – Pan-STARRS 1, Haleakala MPS 398409
2011 09 02.46379 23 54 46.698 +06 33 09.65 20.9 w F51 – Pan-STARRS 1, Haleakala MPS 398409
2011 09 19.36087 23 44 11.14 +04 29 29.2 20.1 V G96 – Mt. Lemmon Survey MPS 398409
2011 09 19.36892 23 44 10.82 +04 29 25.2 20.1 V G96 – Mt. Lemmon Survey MPS 398409
2011 09 19.37718 23 44 10.46 +04 29 21.4 20.0 V G96 – Mt. Lemmon Survey MPS 398409
2011 09 19.38540 23 44 10.14 +04 29 17.2 20.0 V G96 – Mt. Lemmon Survey MPS 398409
2011 10 16.41377 23 28 24.242 +00 49 36.19 20.9 i F51 – Pan-STARRS 1, Haleakala MPS 395198
2011 10 16.41672 23 28 24.155 +00 49 34.80 20.8 i F51 – Pan-STARRS 1, Haleakala MPS 395198
2011 10 16.42263 23 28 24.002 +00 49 32.10 20.8 i F51 – Pan-STARRS 1, Haleakala MPS 395198
2011 10 16.42558 23 28 23.919 +00 49 30.96 20.9 i F51 – Pan-STARRS 1, Haleakala MPS 395198
2011 10 16.43150 23 28 23.770 +00 49 28.36 20.8 i F51 – Pan-STARRS 1, Haleakala MPS 395198
2011 10 19.41054 23 27 12.644 +00 27 56.51 21.1 i F51 – Pan-STARRS 1, Haleakala MPS 395198
2011 10 19.41351 23 27 12.576 +00 27 55.19 21.0 i F51 – Pan-STARRS 1, Haleakala MPS 395198
2011 10 19.41646 23 27 12.510 +00 27 54.01 21.0 i F51 – Pan-STARRS 1, Haleakala MPS 395198
2011 10 19.42236 23 27 12.367 +00 27 51.45 21.0 i F51 – Pan-STARRS 1, Haleakala MPS 395198
2011 10 19.42532 23 27 12.295 +00 27 50.13 21.0 i F51 – Pan-STARRS 1, Haleakala MPS 395198
2011 10 19.42827 23 27 12.228 +00 27 48.93 20.9 i F51 – Pan-STARRS 1, Haleakala MPS 395198
2011 10 19.43126 23 27 12.158 +00 27 47.80 20.9 i F51 – Pan-STARRS 1, Haleakala MPS 395198
2011 10 26.24753 23 25 06.042 -00 17 23.31 21.3 g F51 – Pan-STARRS 1, Haleakala MPS 396524
2011 10 26.24902 23 25 06.019 -00 17 24.00 21.3 g F51 – Pan-STARRS 1, Haleakala MPS 396524
2011 10 26.25050 23 25 05.989 -00 17 24.59 21.4 g F51 – Pan-STARRS 1, Haleakala MPS 396524
2011 10 26.25198 23 25 05.962 -00 17 25.09 21.3 g F51 – Pan-STARRS 1, Haleakala MPS 396524
2011 10 26.25348 23 25 05.948 -00 17 25.59 21.4 g F51 – Pan-STARRS 1, Haleakala MPS 396524
2011 10 26.25497 23 25 05.930 -00 17 26.04 21.4 g F51 – Pan-STARRS 1, Haleakala MPS 396524
2011 10 26.25645 23 25 05.892 -00 17 26.65 21.3 g F51 – Pan-STARRS 1, Haleakala MPS 396524
2011 10 26.25957 23 25 05.841 -00 17 27.88 21.3 g F51 – Pan-STARRS 1, Haleakala MPS 396524
2011 10 26.26105 23 25 05.825 -00 17 28.31 21.4 g F51 – Pan-STARRS 1, Haleakala MPS 396524
2011 10 26.26253 23 25 05.805 -00 17 28.88 21.3 g F51 – Pan-STARRS 1, Haleakala MPS 396524
2011 10 26.26400 23 25 05.769 -00 17 29.50 21.4 g F51 – Pan-STARRS 1, Haleakala MPS 396524
2011 10 26.26993 23 25 05.677 -00 17 31.66 21.4 g F51 – Pan-STARRS 1, Haleakala MPS 396524
2011 10 27.27830 23 24 51.554 -00 23 40.63 21.0 i F51 – Pan-STARRS 1, Haleakala MPS 396524
2011 10 27.28128 23 24 51.510 -00 23 41.68 21.0 i F51 – Pan-STARRS 1, Haleakala MPS 396524
2011 10 27.28717 23 24 51.430 -00 23 43.79 21.1 i F51 – Pan-STARRS 1, Haleakala MPS 396524
2011 10 27.29306 23 24 51.332 -00 23 45.75 21.1 i F51 – Pan-STARRS 1, Haleakala MPS 396524
2011 10 27.29894 23 24 51.254 -00 23 48.03 21.0 i F51 – Pan-STARRS 1, Haleakala MPS 396524
2011 10 29.34495 23 24 26.350 -00 35 48.92 20.7 r F51 – Pan-STARRS 1, Haleakala MPS 398409
2011 10 29.34643 23 24 26.326 -00 35 49.49 21.0 r F51 – Pan-STARRS 1, Haleakala MPS 398409
2011 10 29.34791 23 24 26.310 -00 35 50.06 21.1 r F51 – Pan-STARRS 1, Haleakala MPS 398409
2011 10 29.34939 23 24 26.284 -00 35 50.45 21.0 r F51 – Pan-STARRS 1, Haleakala MPS 398409
2011 10 29.35235 23 24 26.264 -00 35 51.37 21.2 r F51 – Pan-STARRS 1, Haleakala MPS 398409
2012 11 07.604784 06 14 56.268 +06 34 25.27 20.5 i F51 – Pan-STARRS 1, Haleakala MPS 439689
2012 11 07.616849 06 14 56.129 +06 34 20.69 20.7 i F51 – Pan-STARRS 1, Haleakala MPS 439689
2012 12 22.37412 05 48 11.724 +03 29 38.42 20.0 i F51 – Pan-STARRS 1, Haleakala MPS 448529
2012 12 22.38755 05 48 11.036 +03 29 37.50 20.0 i F51 – Pan-STARRS 1, Haleakala MPS 448529
2013 01 03.24649 05 38 58.34 +03 32 06.5 20.1 V G96 – Mt. Lemmon Survey MPS 448788
2013 01 03.25348 05 38 58.02 +03 32 07.0 20.0 V G96 – Mt. Lemmon Survey MPS 448788
2013 01 03.26043 05 38 57.73 +03 32 07.2 20.0 V G96 – Mt. Lemmon Survey MPS 448788
2014 03 21.59982 11 46 36.85 -04 00 29.0 20.1 R D29 – Purple Mountain Observatory, XuYi Station MPS 508480
2014 03 21.61573 11 46 36.09 -04 00 21.9 21.0 R D29 – Purple Mountain Observatory, XuYi Station MPS 508480
2014 03 24.40558 11 44 44.644 -03 37 02.26 20.1 w F51 – Pan-STARRS 1, Haleakala MPS 508480
2014 03 24.41788 11 44 44.133 -03 36 56.03 20.2 w F51 – Pan-STARRS 1, Haleakala MPS 508480
2014 03 24.44250 11 44 43.122 -03 36 43.56 20.1 w F51 – Pan-STARRS 1, Haleakala MPS 508480
2014 05 20.28899 11 30 11.676 +01 54 45.60 21.4 w F51 – Pan-STARRS 1, Haleakala MPS 516377
2014 05 20.30068 11 30 11.856 +01 54 47.20 21.4 w F51 – Pan-STARRS 1, Haleakala MPS 516377
2014 05 20.32407 11 30 12.188 +01 54 49.60 21.3 w F51 – Pan-STARRS 1, Haleakala MPS 516377
2015 03 30.58953 16 56 50.102 -10 56 04.38 21.8 w F51 – Pan-STARRS 1, Haleakala MPS 597577
2015 03 30.60215 16 56 50.221 -10 56 00.56 21.8 w F51 – Pan-STARRS 1, Haleakala MPS 597577
2015 05 18.52813 16 41 05.028 -06 43 54.79 21.3 w F51 – Pan-STARRS 1, Haleakala MPS 608496
2015 05 18.53872 16 41 04.583 -06 43 51.66 21.2 w F51 – Pan-STARRS 1, Haleakala MPS 608496
2015 05 18.54930 16 41 04.131 -06 43 48.90 21.4 w F51 – Pan-STARRS 1, Haleakala MPS 608496
2015 05 18.55986 16 41 03.661 -06 43 46.15 21.1 w F51 – Pan-STARRS 1, Haleakala MPS 608496
2015 05 19.43282 16 40 27.081 -06 39 52.99 21.2 w F51 – Pan-STARRS 1, Haleakala MPS 608496
2015 05 19.45413 16 40 26.156 -06 39 47.50 21.2 w F51 – Pan-STARRS 1, Haleakala MPS 608496
2015 05 19.46487 16 40 25.690 -06 39 44.46 21.1 w F51 – Pan-STARRS 1, Haleakala MPS 608496
2015 05 22.47390 16 38 16.586 -06 26 49.52 20.9 w F52 – Pan-STARRS 2, Haleakala MPS 609765
2015 05 22.48786 16 38 15.957 -06 26 45.88 20.9 w F52 – Pan-STARRS 2, Haleakala MPS 609765
2015 05 22.50176 16 38 15.336 -06 26 42.75 20.5 w F52 – Pan-STARRS 2, Haleakala MPS 609765
2015 05 25.36100 16 36 09.93 -06 15 10.9 21.2 V G96 – Mt. Lemmon Survey MPS 609765
2015 05 25.36610 16 36 09.68 -06 15 09.4 21.2 V G96 – Mt. Lemmon Survey MPS 609765
2015 05 25.37121 16 36 09.45 -06 15 08.5 21.0 V G96 – Mt. Lemmon Survey MPS 609765
2015 05 25.37632 16 36 09.22 -06 15 07.1 21.1 V G96 – Mt. Lemmon Survey MPS 609765
2015 06 07.43291 16 26 29.276 -05 32 56.43 20.9 i F51 – Pan-STARRS 1, Haleakala MPS 611452
2015 06 07.45612 16 26 28.193 -05 32 52.75 20.9 i F51 – Pan-STARRS 1, Haleakala MPS 611452
2015 06 07.46774 16 26 27.711 -05 32 51.17 21.0 i F51 – Pan-STARRS 1, Haleakala MPS 611452
2015 07 07.26884 16 09 35.341 -05 12 48.08 21.5 w F51 – Pan-STARRS 1, Haleakala MPS 615090
2015 07 07.29020 16 09 34.886 -05 12 49.70 21.6 w F51 – Pan-STARRS 1, Haleakala MPS 615090
2015 07 07.30090 16 09 34.637 -05 12 50.24 21.7 w F51 – Pan-STARRS 1, Haleakala MPS 615090
2016 07 11.45328 21 04 24.386 +00 52 37.97 21.4 w F51 – Pan-STARRS 1, Haleakala MPS 721206
2016 07 11.46589 21 04 23.939 +00 52 37.31 21.3 w F51 – Pan-STARRS 1, Haleakala MPS 721206
